Find Starlink 36359

NORAD ID: 67979 Int'l Des: 2026-038 Owner: SPXS Country: US Constellation: starlink operational
LEOCIRCULARRETROGRADE

現在のビュー

3D地球を読み込み中...

Starlink 36359について

説明を読み込み中...

次回通過

Passes for default location (London). Set your location on the main map for personalized predictions.

高度履歴

Loading altitude history...

軌道要素

1 67979U 26038U 26150.01047215 .00038294 00000-0 11815-2 0 9995
2 67979 97.2845 159.9983 0002091 95.1928 264.9553 15.33471279 15704
Epoch: May 30, 2026 • Age: 14 hours

現在のステータス

高度 489.7 km
速度 7.62 km/s
衛星直下点 -60.00°S, 127.64°W
打ち上げ日 Feb 25, 2026
運用期間 0.2 years
タイプ internet

技術仕様

分類 Payload
質量 575.00 kg
乾燥質量 530.00 kg
総質量 575.00 kg
長さ 0.30 m
直径 4.10 m
スパン 29.00 m
形状 Box + pan
製造者 SPXS
バスタイプ Starlink V2MO
フェーズステータス In Orbit
所有者/国 SPXS/US

Most Searched